FW0460 Weather Reports


time (UTC)temp
F
wind
direction
speed
knots
gust
knots
rain 1hr
in
rain 24hr
in
rain mn
in
humidity
%
barometer
mb
20260507065034 64 207 4.3 8.7 0.00 0.00 0.00 76 1012.8
20260507064030 64 211 2.6 8.7 0.00 0.00 0.00 76 1012.7
20260507063026 64 193 3.5 8.7 0.00 0.00 0.00 77 1012.9
20260507062023 64 193 3.5 8.7 0.00 0.00 0.00 76 1012.8
20260507061020 64 181 3.5 7.0 0.00 0.00 0.00 77 1012.7
20260507060036 63 169 1.7 7.0 0.00 0.00 0.00 78 1012.6
20260507055033 62 185 1.7 8.7 0.00 0.00 0.00 79 1012.6
20260507054029 61 153 1.7 4.3 0.00 0.00 0.00 80 1012.5
20260507053025 61 179 1.7 7.0 0.00 0.00 0.00 81 1012.4
20260507052022 61 202 0.0 1.7 0.00 0.00 0.00 82 1012.2
20260507051018 61 201 0.0 1.7 0.00 0.00 0.00 82 1012.1
20260507050035 60 172 0.0 1.7 0.00 0.00 0.00 83 1012.1
20260507045031 59 169 0.0 1.7 0.00 0.00 0.00 84 1012.0
20260507044028 59 114 0.0 1.7 0.00 0.00 0.00 84 1012.0
20260507043104 59 145 0.9 7.0 0.00 0.00 0.00 84 1011.9
20260507042101 59 179 0.0 1.7 0.00 0.00 0.00 84 1011.6
20260507041017 59 139 0.0 1.7 0.00 0.00 0.00 85 1011.4
20260507040033 58 149 0.0 1.7 0.00 0.00 0.00 85 1011.3
20260507035049 58 0.0 0.0 0.00 0.00 0.00 85 1011.3
20260507034046 58 0.0 0.0 0.00 0.00 0.00 85 1011.3
20260507033022 58 0.0 1.7 0.00 0.00 0.00 84 1011.2
20260507032018 58 117 0.0 1.7 0.00 0.00 0.00 84 1011.1
20260507031035 59 0.0 1.7 0.00 0.00 0.00 83 1011.1
20260507030031 59 205 0.0 1.7 0.00 0.00 0.00 83 1011.0
20260507025028 59 170 0.0 1.7 0.00 0.00 0.00 83 1011.2
20260507024024 60 171 0.0 1.7 0.00 0.00 0.00 80 1011.1
20260507023020 60 0.0 0.0 0.00 0.00 0.00 80 1011.0
20260507022017 60 0.0 0.0 0.00 0.00 0.00 79 1010.9
20260507021033 60 277 0.0 1.7 0.00 0.00 0.00 79 1010.8
20260507020049 60 307 0.0 1.7 0.00 0.00 0.00 79 1010.8
20260507015025 60 0.0 0.0 0.00 0.00 0.00 79 1010.9
20260507014022 60 0.0 1.7 0.00 0.00 0.00 79 1010.9
20260507013018 60 0.0 0.0 0.00 0.00 0.00 79 1011.0
20260507012035 60 0.0 0.0 0.00 0.00 0.00 78 1010.9
20260507011031 61 0.0 0.0 0.00 0.00 0.00 77 1010.9
20260507010027 61 0.0 0.0 0.00 0.00 0.00 77 1010.7
20260507005023 61 0.0 0.0 0.00 0.00 0.00 76 1010.5
20260507004019 61 0.0 0.0 0.00 0.00 0.00 76 1010.7
20260507003035 62 0.0 0.0 0.00 0.00 0.00 76 1010.8
20260507002032 62 250 0.0 1.7 0.00 0.00 0.00 75 1010.9
20260507001048 62 274 0.9 4.3 0.00 0.00 0.00 75 1010.8
20260507000024 61 250 0.0 1.7 0.00 0.00 0.00 75 1011.0
20260506235021 61 246 0.9 4.3 0.00 0.00 0.00 75 1011.2
20260506234017 61 235 0.0 4.3 0.00 0.00 0.00 75 1011.2
20260506233054 60 236 1.7 8.7 0.00 0.00 0.00 76 1011.2
20260506232030 58 198 0.9 4.3 0.00 0.00 0.00 76 1011.3
20260506231026 59 198 0.9 1.7 0.00 0.00 0.00 75 1011.3
20260506230023 59 0.0 0.0 0.00 0.00 0.00 75 1011.2
20260506225019 59 0.0 1.7 0.00 0.00 0.00 75 1011.1
20260506224016 59 206 0.0 1.7 0.00 0.00 0.00 75 1011.0
20260506223032 59 0.0 0.0 0.00 0.00 0.00 75 1010.7
20260506222028 59 0.0 0.0 0.00 0.00 0.00 74 1010.7
20260506221025 60 0.0 0.0 0.00 0.00 0.00 72 1010.6
20260506220021 61 0.0 0.0 0.00 0.00 0.00 70 1010.6
20260506215018 63 241 1.7 4.3 0.00 0.00 0.00 68 1010.5
20260506214035 63 251 2.6 4.3 0.00 0.00 0.00 68 1010.4
20260506213033 63 259 3.5 7.0 0.00 0.00 0.00 68 1010.4
20260506212028 64 259 1.7 4.3 0.00 0.00 0.00 67 1010.4
20260506211024 65 262 2.6 7.0 0.00 0.00 0.00 65 1010.3
20260506210021 65 252 3.5 8.7 0.00 0.00 0.00 64 1010.3
20260506205018 62 246 5.2 11.3 0.00 0.00 0.00 66 1010.4
20260506204034 63 245 0.0 1.7 0.00 0.00 0.00 65 1010.0
20260506203030 63 0.0 0.0 0.00 0.00 0.00 64 1009.9
20260506202026 64 0.0 0.0 0.00 0.00 0.00 64 1009.8
20260506201023 64 156 0.0 1.7 0.00 0.00 0.00 63 1010.0
20260506200019 64 0.0 1.7 0.00 0.00 0.00 63 1009.9
20260506195015 64 0.0 1.7 0.00 0.00 0.00 63 1009.9
20260506194032 65 164 0.0 1.7 0.00 0.00 0.00 63 1010.0
20260506193029 65 120 0.0 1.7 0.00 0.00 0.00 62 1009.9
20260506192025 66 146 0.0 1.7 0.00 0.00 0.00 61 1009.7
20260506191021 66 165 0.0 1.7 0.00 0.00 0.00 60 1009.6
20260506190018 67 0.0 1.7 0.00 0.00 0.00 58 1009.6
20260506185034 67 0.0 0.0 0.00 0.00 0.00 58 1009.5
20260506184030 67 0.0 0.0 0.00 0.00 0.00 58 1009.5
20260506183027 68 172 0.0 1.7 0.00 0.00 0.00 56 1009.4
20260506182023 67 0.0 1.7 0.00 0.00 0.00 58 1009.4
20260506181018 68 0.0 1.7 0.00 0.00 0.00 57 1009.3
20260506180035 69 0.0 0.0 0.00 0.00 0.00 54 1009.3
20260506175031 71 197 0.0 1.7 0.00 0.00 0.00 52 1009.3
20260506174128 72 0.0 1.7 0.00 0.00 0.00 51 1009.2
20260506173023 72 203 0.0 1.7 0.00 0.00 0.00 50 1009.3
20260506172019 73 0.0 0.0 0.00 0.00 0.00 49 1009.3
20260506171035 74 216 0.0 1.7 0.00 0.00 0.00 47 1009.3
20260506170030 75 210 0.0 4.3 0.00 0.00 0.00 46 1009.2
20260506165026 76 221 0.0 1.7 0.00 0.00 0.00 45 1009.2
20260506164022 76 219 1.7 11.3 0.00 0.00 0.00 43 1009.2
20260506163018 77 232 1.7 7.0 0.00 0.00 0.00 43 1009.2
20260506162053 78 224 1.7 8.7 0.00 0.00 0.00 41 1009.1
20260506161029 78 208 4.3 11.3 0.00 0.00 0.00 41 1009.2
20260506160025 78 196 3.5 8.7 0.00 0.00 0.00 42 1009.4
20260506155041 78 184 2.6 8.7 0.00 0.00 0.00 41 1009.4
20260506154037 80 197 4.3 13.0 0.00 0.00 0.00 40 1009.4
20260506153032 80 206 3.5 8.7 0.00 0.00 0.00 39 1009.3
20260506152028 79 210 4.3 13.0 0.00 0.00 0.00 40 1009.4
20260506151023 79 199 6.1 17.4 0.00 0.00 0.00 41 1009.4
20260506150019 80 207 4.3 11.3 0.00 0.00 0.00 40 1009.5
20260506145055 82 227 3.5 8.7 0.00 0.00 0.00 38 1009.6
20260506144031 82 216 4.3 14.8 0.00 0.00 0.00 39 1009.6
20260506143026 80 201 6.1 13.0 0.00 0.00 0.00 41 1009.6
20260506142022 79 203 7.8 13.0 0.00 0.00 0.00 41 1009.8
20260506141018 80 196 7.0 13.0 0.00 0.00 0.00 40 1010.0
20260506140034 79 205 6.1 14.8 0.00 0.00 0.00 41 1010.0
20260506135029 79 191 6.1 13.0 0.00 0.00 0.00 42 1010.0
20260506134025 78 200 5.2 13.0 0.00 0.00 0.00 42 1010.1
20260506133020 79 200 7.0 14.8 0.00 0.00 0.00 41 1010.3
20260506132017 78 203 5.2 13.0 0.00 0.00 0.00 41 1010.3
20260506131033 78 218 4.3 17.4 0.00 0.00 0.00 42 1010.4
20260506130028 77 208 6.1 14.8 0.00 0.00 0.00 43 1010.7
20260506125044 77 209 6.1 13.0 0.00 0.00 0.00 43 1010.7
20260506124021 77 216 5.2 13.0 0.00 0.00 0.00 43 1010.6
20260506123017 77 210 7.0 17.4 0.00 0.00 0.00 44 1010.8
20260506122033 77 210 6.1 14.8 0.00 0.00 0.00 44 1010.7
20260506121029 77 206 6.1 21.7 0.00 0.00 0.00 43 1010.9
20260506120025 77 212 4.3 14.8 0.00 0.00 0.00 44 1010.9
20260506115021 76 208 5.2 20.0 0.00 0.00 0.00 44 1011.0
20260506114017 76 191 4.3 8.7 0.00 0.00 0.00 45 1011.0
20260506113034 77 200 6.1 14.8 0.00 0.00 0.00 44 1010.9
20260506112049 76 199 5.2 13.0 0.00 0.00 0.00 45 1011.2
20260506111045 76 202 9.6 24.3 0.00 0.00 0.00 44 1011.1
20260506110021 76 218 5.2 11.3 0.00 0.00 0.00 44 1011.2
20260506105018 76 201 5.2 14.8 0.00 0.00 0.00 44 1011.3
20260506104053 77 213 7.0 14.8 0.00 0.00 0.00 44 1011.3
20260506103028 75 198 6.1 13.0 0.00 0.00 0.00 45 1011.3
20260506102044 76 217 7.0 14.8 0.00 0.00 0.00 44 1011.4
20260506101020 75 208 7.0 14.8 0.00 0.00 0.00 45 1011.5
20260506100016 75 206 7.0 14.8 0.00 0.00 0.00 45 1011.6
20260506095031 74 222 4.3 11.3 0.00 0.00 0.00 46 1011.5
20260506094027 74 209 5.2 14.8 0.00 0.00 0.00 47 1011.6
20260506093023 74 212 6.1 14.8 0.00 0.00 0.00 47 1011.7
20260506092018 75 218 4.3 13.0 0.00 0.00 0.00 47 1011.7
20260506091055 75 220 4.3 13.0 0.00 0.00 0.00 46 1011.6
20260506090029 74 211 7.8 20.0 0.00 0.00 0.00 46 1011.6
20260506085026 73 206 7.0 14.8 0.00 0.00 0.00 48 1011.5
20260506084121 73 207 7.0 17.4 0.00 0.00 0.00 48 1011.6
20260506083017 73 228 5.2 14.8 0.00 0.00 0.00 48 1011.6
20260506082032 73 219 6.1 14.8 0.00 0.00 0.00 49 1011.7
20260506081028 72 234 6.1 14.8 0.00 0.00 0.00 50 1011.7
20260506073032 70 216 5.2 13.0 0.00 0.00 0.00 55 1011.9
20260506072028 69 208 4.3 11.3 0.00 0.00 0.00 56 1011.9
20260506071024 68 207 5.2 14.8 0.00 0.00 0.00 57 1011.9